Location: Unspecified
(0.0000°N, 0.0000°E)
Time: 01:23:27
(UTC+00:00)

SR - Visible Passes

Search period start: 20 July 2019 00:00
Search period end: 30 July 2019 00:00
Orbit: 580 x 876 km, 66.7° (Epoch: 19 July)

Date Brightness Start Highest point End Pass type
(mag) Time Alt. Az. Time Alt. Az. Time Alt. Az.
20 Jul ? 20:00:35 10° WSW 20:03:05 15° WNW 20:05:33 10° NW visible
21 Jul ? 19:09:26 10° SW 19:13:34 45° WNW 19:17:35 10° N visible
23 Jul ? 05:06:43 10° ENE 05:07:55 11° ENE 05:09:08 10° E visible
23 Jul ? 19:13:27 10° WSW 19:16:12 17° WNW 19:18:55 10° NNW visible
25 Jul ? 05:06:01 10° NNE 05:10:39 25° ENE 05:15:23 10° SE visible
26 Jul ? 18:26:22 10° WSW 18:29:19 18° WNW 18:32:15 10° NNW visible
27 Jul ? 05:07:43 10° N 05:13:22 55° ENE 05:19:07 10° SSE visible
28 Jul ? 04:19:19 10° NNE 04:23:48 23° ENE 04:28:23 10° ESE visible
29 Jul ? 05:10:19 10° NNW 05:16:05 68° WSW 05:21:57 10° SSE visible
